TimeEST,TemperatureF,Dew PointF,Humidity,Sea Level PressureIn,VisibilityMPH,Wind Direction,Wind SpeedMPH,Gust SpeedMPH,PrecipitationIn,Events,Conditions,WindDirDegrees,DateUTC
12:53 AM,68.0,61.0,78,29.95,10.0,Calm,Calm,-,N/A,,Mostly Cloudy,0,2012-11-06 05:53:00
1:53 AM,69.1,64.0,84,29.93,10.0,Calm,Calm,-,N/A,,Mostly Cloudy,0,2012-11-06 06:53:00
2:53 AM,66.9,63.0,87,29.91,10.0,Calm,Calm,-,N/A,,Mostly Cloudy,0,2012-11-06 07:53:00
3:53 AM,66.9,64.9,93,29.91,10.0,Calm,Calm,-,N/A,,Clear,0,2012-11-06 08:53:00
4:53 AM,64.9,63.0,93,29.91,10.0,Calm,Calm,-,N/A,,Clear,0,2012-11-06 09:53:00
5:53 AM,64.9,64.0,97,29.93,10.0,Calm,Calm,-,N/A,,Clear,0,2012-11-06 10:53:00
6:53 AM,64.9,64.9,100,29.95,4.0,Calm,Calm,-,N/A,,Partly Cloudy,0,2012-11-06 11:53:00
7:53 AM,69.1,66.9,93,29.96,10.0,Calm,Calm,-,N/A,,Clear,0,2012-11-06 12:53:00
8:53 AM,71.1,66.9,87,29.96,10.0,Calm,Calm,-,N/A,,Clear,0,2012-11-06 13:53:00
9:53 AM,75.0,62.1,64,29.96,10.0,West,5.8,-,N/A,,Clear,260,2012-11-06 14:53:00
10:53 AM,77.0,61.0,58,29.94,10.0,SW,10.4,-,N/A,,Clear,230,2012-11-06 15:53:00
11:53 AM,80.1,62.1,54,29.91,10.0,SW,12.7,-,N/A,,Clear,230,2012-11-06 16:53:00
12:53 PM,82.0,61.0,49,29.88,10.0,West,16.1,-,N/A,,Clear,260,2012-11-06 17:53:00
1:53 PM,82.0,52.0,35,29.85,10.0,WSW,19.6,-,N/A,,Clear,250,2012-11-06 18:53:00
2:53 PM,81.0,57.9,45,29.85,10.0,West,13.8,23.0,N/A,,Clear,260,2012-11-06 19:53:00
3:53 PM,81.0,57.9,45,29.85,10.0,WSW,13.8,21.9,N/A,,Clear,250,2012-11-06 20:53:00
4:53 PM,79.0,51.1,38,29.86,10.0,West,10.4,-,N/A,,Scattered Clouds,260,2012-11-06 21:53:00
5:53 PM,75.0,62.1,64,29.87,10.0,NW,15.0,-,N/A,,Mostly Cloudy,320,2012-11-06 22:53:00
6:53 PM,73.0,64.9,76,29.88,10.0,West,5.8,-,N/A,,Overcast,260,2012-11-06 23:53:00
7:53 PM,72.0,64.0,76,29.88,10.0,WSW,5.8,-,N/A,,Partly Cloudy,250,2012-11-07 00:53:00
8:53 PM,71.1,64.9,81,29.89,10.0,SW,6.9,-,N/A,,Clear,230,2012-11-07 01:53:00
9:53 PM,70.0,66.0,87,29.89,10.0,WSW,5.8,-,N/A,,Clear,250,2012-11-07 02:53:00
10:53 PM,69.1,66.0,90,29.89,10.0,West,5.8,-,N/A,,Clear,260,2012-11-07 03:53:00
11:53 PM,70.0,68.0,93,29.88,10.0,West,5.8,-,N/A,,Mostly Cloudy,270,2012-11-07 04:53:00